This demonstration page uses our WeatherBlox Daily Observations layout. Learn more.

Left ArrowRight Arrow

39.29038, -76.61219

Hourly Observations for November 17, 2016

Temp ( °F °C ) Dew Point ( °F °C ) Humidity (%) Winds ( mph kmh ) Pressure ( in mb ) Visibility ( mi km ) Precip ( " mm )
12:54 am 00:54 undefined 53 11.7 39 3.9 59 59 undefined N/A 29.99 1016 N/A 0.00 0.00
1:54 am 01:54 undefined 50 10 39 3.9 66 66 undefined N/A 29.99 1016 N/A 0.00 0.00
2:54 am 02:54 undefined 51 10.6 39 3.9 64 64 undefined N/A 30.02 1017 N/A 0.00 0.00
3:54 am 03:54 undefined 51 10.6 39 3.9 64 64 undefined N/A 30.03 1017 N/A 0.00 0.00
4:54 am 04:54 undefined 50 10 38 3.3 63 63 undefined N/A 30.04 1017 N/A 0.00 0.00
5:54 am 05:54 undefined 50 10 38 3.3 63 63 undefined N/A 30.05 1018 N/A 0.00 0.00
6:54 am 06:54 undefined 49 9.4 38 3.3 66 66 undefined N/A 30.06 1018 N/A 0.00 0.00
7:54 am 07:54 undefined 50 10 38 3.3 63 63 undefined N/A 30.09 1019 N/A 0.00 0.00
8:54 am 08:54 undefined 53 11.7 38 3.3 57 57 undefined N/A 30.10 1019 N/A 0.00 0.00
9:54 am 09:54 undefined 55 12.8 35 1.7 47 47 undefined N/A 30.11 1020 N/A 0.00 0.00
10:54 am 10:54 undefined 57 13.9 35 1.7 44 44 undefined N/A 30.11 1020 N/A 0.00 0.00
11:54 am 11:54 undefined 58 14.4 34 1.1 41 41 undefined N/A 30.09 1019 N/A 0.00 0.00
12:54 pm 12:54 undefined 59 15 34 1.1 39 39 undefined N/A 30.06 1018 N/A 0.00 0.00
1:54 pm 13:54 undefined 60 15.6 33 0.6 36 36 undefined N/A 30.05 1018 N/A 0.00 0.00
2:54 pm 14:54 undefined 61 16.1 33 0.6 35 35 undefined N/A 30.05 1018 N/A 0.00 0.00
3:54 pm 15:54 undefined 61 16.1 33 0.6 35 35 undefined N/A 30.06 1018 N/A 0.00 0.00
4:54 pm 16:54 undefined 60 15.6 33 0.6 36 36 undefined N/A 30.07 1018 N/A 0.00 0.00
5:54 pm 17:54 undefined 59 15 34 1.1 39 39 undefined N/A 30.09 1019 N/A 0.00 0.00
6:54 pm 18:54 undefined 58 14.4 33 0.6 39 39 undefined N/A 30.10 1019 N/A 0.00 0.00
7:54 pm 19:54 undefined 55 12.8 34 1.1 45 45 undefined N/A 30.11 1020 N/A 0.00 0.00
8:54 pm 20:54 undefined 54 12.2 34 1.1 47 47 undefined N/A 30.12 1020 N/A 0.00 0.00
9:54 pm 21:54 undefined 52 11.1 34 1.1 50 50 undefined N/A 30.14 1021 N/A 0.00 0.00
10:54 pm 22:54 undefined 54 12.2 35 1.7 49 49 undefined N/A 30.13 1020 N/A 0.00 0.00
11:54 pm 23:54 undefined 55 12.8 33 0.6 44 44 undefined N/A 30.13 1020 N/A 0.00 0.00

Powered by AerisWeather